Orbital Elements at Epoch 2459000.5 (2020-May-31.0) TDB
Reference: JPL 14 (heliocentric ecliptic J2000)
Element | Value | Uncertainty (1-sigma) | Units |
e | .1357850544242949 | 5.2079e-08 | |
a | 2.431225938077692 | 1.1764e-08 | au |
q | 2.101101791758055 | 1.2791e-07 | au |
i | 1.261259926674362 | 6.5729e-06 | deg |
node | 174.0059294382387 | 0.00020242 | deg |
peri | 321.4105902184795 | 0.0002034 | deg |
M | 127.5616903848445 | 2.0983e-05 | deg |
tp | 2458509.869918132113 (2019-Jan-26.36991813) | 7.9686e-05 | TDB |
period | 1384.638514428344 3.79 | 1.005e-05 2.752e-08 | d yr |
n | .2599956568076746 | 1.8871e-09 | deg/d |
Q | 2.761350084397329 | 1.3362e-08 | au |
|
| | Orbit Determination Parameters
Additional Information
|